Miscellaneous Local Product
Issued by NWS Hastings, NE

Home | Current Version | Previous Version | Text Only | Print | Product List | Glossary Off
Versions: 1 2 3 4 5 6 7 8 9 10 11 12 13 14 15 16 17 18 19 20 21 22 23 24 25 26 27 28 29 30 31 32 33 34 35 36 37 38 39 40 41 42 43 44 45 46 47 48 49 50

643
AXUS43 KGID 091102
MISGRI

GID CWA HOURLY WEATHER ROUNDUP
NATIONAL WEATHER SERVICE HASTINGS NE
500 AM CST FRI DEC 09 2016

NOTE: "FAIR" INDICATES FEW OR NO CLOUDS BELOW 12,000 FEET WITH NO
SIGNIFICANT WEATHER AND/OR OBSTRUCTIONS TO VISIBILITY.

...SOUTH CENTRAL NEBRASKA...

CITY           SKY/WX    TMP DP  RH WIND       PRES   REMARKS
GRAND ISLAND   CLOUDY     4   0  83 E6        30.53F WCI  -7
HASTINGS       CLOUDY     9   3  77 E5        30.52F WCI   1
KEARNEY        CLOUDY     3  -4  72 CALM      30.49F
ORD            CLOUDY    -2  -8  76 CALM      30.49F
YORK           CLOUDY     5   1  85 CALM      30.57F
AURORA         CLOUDY     4  -1  79 E6        30.54F WCI  -7
LEXINGTON      CLOUDY     7   2  80 CALM      30.45F
HOLDREGE       CLOUDY     9   3  78 SE5       30.46F WCI   0
HEBRON         CLOUDY     5   2  87 CALM      30.58F

...NEBRASKA PANHANDLE...

CITY           SKY/WX    TMP DP  RH WIND       PRES   REMARKS
CHADRON        CLOUDY     9   2  73 NE7       30.21F WCI  -2
ALLIANCE       CLOUDY    13   4  67 S17       30.16F WCI  -4
SCOTTSBLUFF    CLOUDY    13   7  77 E15       30.14F WCI  -3
SIDNEY         CLOUDY    13   6  74 S14       30.16F WCI  -2

...WESTERN AND NORTH CENTRAL NEBRASKA...

CITY           SKY/WX    TMP DP  RH WIND       PRES   REMARKS
VALENTINE      CLEAR      1  -5  75 E6        30.40F WCI -10
AINSWORTH      CLOUDY     5   1  83 SE6       30.42F WCI  -6
ONEILL         CLOUDY     5   1  83 CALM      30.50F
BROKEN BOW     CLOUDY     6   0  76 SE8       30.44F WCI  -7
IMPERIAL       CLOUDY    10   3  73 SE10      30.30F WCI  -4
NORTH PLATTE   CLOUDY     4  -1  80 E8        30.38F WCI  -9
MCCOOK         CLOUDY     7   1  76 SE8       30.39F WCI  -6

...EASTERN NEBRASKA...

CITY           SKY/WX    TMP DP  RH WIND       PRES   REMARKS
NORFOLK        CLOUDY     1  -4  79 CALM      30.56F
SO SIOUX CITY  CLEAR      4  -1  80 NW5       30.62F WCI  -5
TEKAMAH        PTCLDY     4   0  83 NW6       30.63F WCI  -7
COLUMBUS       CLOUDY     3  -2  78 CALM      30.58F
ALBION         CLOUDY     3  -2  80 CALM      30.54F
OMAHA EPPLEY   CLEAR      8   2  76 N5        30.63F WCI   0
OFFUTT AFB     CLEAR      7   5  91 NW5       30.62F WCI  -2
MILLARD        CLEAR     11   5  77 CALM      30.62F
LINCOLN        CLEAR      5   1  83 CALM      30.63F
NEBRASKA CITY  CLEAR      9   2  71 N5        30.61F WCI   1
BEATRICE       CLOUDY     6   2  86 CALM      30.61S
FALLS CITY     CLEAR      9   5  84 CALM      30.64F

...NORTHERN KANSAS...

CITY           SKY/WX    TMP DP  RH WIND       PRES   REMARKS
GOODLAND       CLOUDY    10   5  80 S14       30.27F WCI  -6
HILL CITY      CLOUDY    16   9  74 SE7       30.47F WCI   6
NORTON         CLOUDY    12   3  67 SE5       30.44F WCI   4
PHILLIPSBURG   CLOUDY     9   5  85 CALM      30.52S
SMITH CENTER   MOCLDY     7   3  85 SE3       30.53F
BELOIT         CLOUDY    10   7  85 CALM      30.57F
RUSSELL        CLOUDY    15  10  80 SE9       30.52F WCI   3
CONCORDIA      CLOUDY    12   8  84 SE3       30.58F
SALINA         CLOUDY    13   8  81 SE3       30.61F
TOPEKA         CLEAR     11   6  81 CALM      30.66F



USA.gov is the U.S. government's official web portal to all federal, state and local government web resources and services.